Tracking 32577 objects as of 14-Dec-2025
HD Live streaming from Space Station
objects crossing your sky now

USA 40 R/B DEB

Track USA 40 R/B DEB now!
10-day predictions


NORAD ID: 23362
Int'l Code: 1989-061AJ
Perigee: 581.2 km
Apogee: 5,501.4 km
Inclination: 56.9 °
Period: 151.5 minutes
Semi major axis: 9412 km
RCS: Unknown
Launch date: August 8, 1989
Source: United States (US)
Launch site: AIR FORCE EASTERN TEST RANGE (AFETR)

Note: This is SATELLITE DEBRIS
Your satellite tracking list
Your tracking list is empty




NASA's NSSDC Master Catalog

Two Line Element Set (TLE):
1 23362U 89061AJ  25343.50789642  .00008389  00000-0  86817-2 0  9998
2 23362  56.8721  54.4657 2613699 343.8832   9.2089  9.50732149230042
Source of the keplerian elements: AFSPC